[[{"header":{"parameterUnit":"m.s-1","parameterCategory":1,"la1":30.2991,"la2":30.254,"lo1":-89.0895,"lo2":-89.0444,"dy":0.0017,"dx":0.0017,"nx":28,"ny":28,"refTime":"2025-02-25T03:00:00:Z","depth":0,"parameterNumber":2,"parameterNumberName":"U-component_of_WINDS"},"data":[0,0,0,0,0,0,0,0,0,0,0,0,0,0,0,0,0,0,0,0,0,0,0,0,0,0,0,0,0,0,0,0,0,0,0,0,0,0,0,0,0,0,0,0,0,0,0,0,0,0,0,0,0,0,0,0,0,0,-0.7855,-0.7855,0,-0.7808,-0.7807,-0.7807,-0.7775,-0.7775,-0.7775,-0.7775,-0.7725,-0.7724,-0.7723,0,0,0,0,0,0,0,0,0,0,0,0,0,-0.7919,-0.7918,-0.7855,-0.7855,-0.7854,-0.7808,-0.7807,-0.7807,-0.7775,-0.7775,-0.7775,-0.7775,-0.7725,-0.7724,-0.7723,0,0,0,0,0,0,0,0,0,0,0,0,0,-0.7883,-0.7917,-0.7856,-0.7833,-0.7831,-0.7808,-0.7807,-0.7806,-0.7775,-0.7775,-0.7775,-0.7774,-0.7726,-0.7724,-0.7723,-0.7718,0,0,-0.7717,-0.7717,0,0,0,0,0,0,0,0,-0.7885,-0.7881,-0.7837,-0.7835,-0.7832,-0.7797,-0.7811,-0.7777,-0.7775,-0.7796,-0.7775,-0.7774,-0.7749,-0.7746,-0.7737,-0.7716,-0.7714,-0.7717,-0.7716,-0.7715,-0.7715,0,0,0,0,0,0,0,-0.7888,-0.7883,-0.7837,-0.7836,-0.7833,-0.7825,-0.782,-0.7805,-0.7775,-0.7794,-0.7792,-0.7787,-0.7748,-0.7739,-0.7736,-0.7713,-0.7717,-0.7716,-0.7715,-0.7714,-0.7686,-0.7686,0,0,0,0,0,0,-0.7894,-0.7885,-0.7838,-0.7835,-0.7858,-0.7824,-0.7818,-0.7809,-0.7775,-0.777,-0.7787,-0.7786,-0.7742,-0.7738,-0.7734,-0.7727,-0.7715,-0.7714,-0.7713,-0.7686,-0.7686,-0.7686,0,0,0,0,0,0,-0.7895,-0.789,-0.784,-0.7859,-0.7852,-0.7824,-0.7813,-0.7808,-0.7799,-0.777,-0.7764,-0.7784,-0.7742,-0.7736,-0.7722,-0.7725,-0.7713,-0.7712,-0.7685,-0.7686,-0.7686,-0.7713,0,0,0,0,0,0,-0.7897,-0.7891,-0.7889,-0.786,-0.7852,-0.7829,-0.7813,-0.7807,-0.7796,-0.7794,-0.7765,-0.776,-0.7741,-0.7725,-0.7721,-0.7722,-0.771,-0.7685,-0.7686,-0.7686,-0.7711,-0.7714,-0.7716,0,0,0,0,0,-0.79,-0.7898,-0.7889,-0.7883,-0.7849,-0.783,-0.7825,-0.7804,-0.7797,-0.7794,-0.7776,-0.7761,-0.7725,-0.7724,-0.7719,-0.772,-0.7685,-0.7685,-0.7686,-0.771,-0.7713,-0.7716,0,0,0,0,0,0,-0.7928,-0.7894,-0.7883,-0.7872,-0.7854,-0.7824,-0.7821,-0.7807,-0.7791,-0.7789,-0.7763,-0.7757,-0.7745,-0.7731,-0.773,-0.7714,-0.7703,-0.7703,-0.7724,-0.7726,-0.7729,-0.7732,-0.7709,0,0,0,0,0,-0.7933,-0.792,-0.7891,-0.7884,-0.7876,-0.785,-0.7841,-0.7826,-0.7806,-0.7798,-0.7778,-0.7759,-0.7744,-0.7734,-0.7718,-0.7709,-0.7703,-0.7707,-0.771,-0.7712,-0.7712,-0.7706,-0.7708,-0.7688,-0.7688,-0.7688,0,0,-0.7943,-0.7923,-0.7916,-0.7889,-0.7873,-0.7861,-0.7844,-0.7831,-0.7822,-0.7796,-0.7782,-0.7767,-0.7744,-0.7733,-0.7727,-0.772,-0.7716,-0.7713,-0.7714,-0.7713,-0.7707,-0.7709,-0.771,-0.7689,-0.7689,-0.7689,0,0,-0.7955,-0.7938,-0.7931,-0.7915,-0.7892,-0.7875,-0.7873,-0.7846,-0.7835,-0.782,-0.7801,-0.7789,-0.7763,-0.7748,-0.7736,-0.7743,-0.7729,-0.7739,-0.7751,-0.7745,-0.7747,-0.7748,-0.7751,-0.7752,-0.7739,-0.7739,-0.7739,0,-0.797,-0.7951,-0.7928,-0.7917,-0.7906,-0.7883,-0.7875,-0.7861,-0.7833,-0.7826,-0.782,-0.7787,-0.777,-0.7755,-0.7756,-0.7748,-0.7745,-0.7742,-0.7749,-0.775,-0.775,-0.7752,-0.7753,-0.774,-0.774,-0.774,-0.774,0,-0.7971,-0.7958,-0.7954,-0.7929,-0.7917,-0.7908,-0.7884,-0.7875,-0.7861,-0.7845,-0.783,-0.7809,-0.7789,-0.7784,-0.7771,-0.7767,-0.7764,-0.7754,-0.7742,-0.7754,-0.7755,-0.7756,-0.7742,-0.7742,-0.7741,-0.7741,0,0,-0.7998,-0.7961,-0.796,-0.7949,-0.7921,-0.7911,-0.79,-0.7881,-0.7874,-0.7856,-0.7846,-0.7825,-0.7815,-0.7802,-0.7787,-0.7782,-0.7789,-0.7772,-0.7771,-0.7776,-0.7784,-0.7792,-0.7794,-0.778,-0.778,-0.778,-0.7786,0,-0.8006,-0.7986,-0.7966,-0.7954,-0.7941,-0.792,-0.791,-0.7893,-0.7877,-0.7865,-0.7848,-0.7833,-0.7821,-0.7813,-0.7808,-0.779,-0.7791,-0.7789,-0.7771,-0.777,-0.7777,-0.7794,-0.7803,-0.781,-0.7787,-0.7787,-0.7787,0,-0.8012,-0.7996,-0.7982,-0.7956,-0.7951,-0.7943,-0.7924,-0.7912,-0.7891,-0.788,-0.7867,-0.785,-0.7838,-0.7829,-0.7812,-0.7811,-0.7802,-0.7792,-0.7792,-0.7789,-0.7779,-0.7792,-0.7812,-0.7813,-0.7788,-0.7787,-0.7787,0,-0.8034,-0.8008,-0.7997,-0.7988,-0.7957,-0.7952,-0.794,-0.7919,-0.7908,-0.7892,-0.7885,-0.7866,-0.7856,-0.7843,-0.7822,-0.7817,-0.7807,-0.7796,-0.7798,-0.7798,-0.7796,-0.7797,-0.7815,-0.7791,-0.7791,-0.7791,-0.7791,0,-0.8045,-0.8037,-0.8006,-0.7999,-0.799,-0.7967,-0.7959,-0.7944,-0.7926,-0.7916,-0.7896,-0.7886,-0.7859,-0.7847,-0.783,-0.7819,-0.7815,-0.7805,-0.7801,-0.7807,-0.7808,-0.7801,-0.78,-0.7791,-0.7791,-0.7791,-0.7791,0,-0.8067,-0.8046,-0.8033,-0.8005,-0.7998,-0.7993,-0.7969,-0.7962,-0.7945,-0.7933,-0.7928,-0.7903,-0.7887,-0.7865,-0.7842,-0.7831,-0.7822,-0.7815,-0.7829,-0.7827,-0.783,-0.783,-0.7843,-0.7844,-0.7821,-0.7821,-0.7821,0,-0.8075,-0.8069,-0.8041,-0.8033,-0.8021,-0.8008,-0.7998,-0.7975,-0.7965,-0.7941,-0.7937,-0.7919,-0.7904,-0.788,-0.786,-0.7842,-0.7835,-0.7841,-0.7832,-0.7838,-0.7835,-0.7836,-0.7835,-0.7843,-0.7843,-0.7844,-0.7844,0,-0.8092,-0.8082,-0.8068,-0.8051,-0.8039,-0.8024,-0.8008,-0.8002,-0.7976,-0.7965,-0.7949,-0.7938,-0.7915,-0.7898,-0.7878,-0.7865,-0.785,-0.7847,-0.7846,-0.7852,-0.7861,-0.7856,-0.7835,-0.7847,-0.7846,-0.7846,-0.7846,-0.7846,-0.8108,-0.8101,-0.8081,-0.8066,-0.8052,-0.8037,-0.8029,-0.8012,-0.7998,-0.7978,-0.7965,-0.795,-0.793,-0.7902,-0.7889,-0.7876,-0.787,-0.787,-0.7869,-0.787,-0.7872,-0.7863,-0.7873,-0.7872,-0.7872,-0.7872,-0.7872,0,-0.8123,-0.8109,-0.8096,-0.8074,-0.8063,-0.805,-0.8032,-0.8023,-0.801,-0.7992,-0.7978,-0.796,-0.7944,-0.7922,-0.7904,-0.7898,-0.7891,-0.7894,-0.7895,-0.7892,-0.7878,-0.788,-0.7901,-0.7901,-0.7901,-0.7901,-0.7901,-0.7901,-0.813,-0.8119,-0.8107,-0.8088,-0.8074,-0.8059,-0.805,-0.8036,-0.8022,-0.8003,-0.799,-0.7976,-0.7956,-0.7937,-0.7922,-0.7916,-0.791,-0.7916,-0.7908,-0.7895,-0.7893,-0.789,-0.7892,-0.7915,-0.7915,-0.7922,-0.7922,-0.7922]},{"header":{"parameterUnit":"m.s-1","parameterCategory":1,"la1":30.2991,"la2":30.254,"lo1":-89.0895,"lo2":-89.0444,"dy":0.0017,"dx":0.0017,"nx":28,"ny":28,"refTime":"2025-02-25T03:00:00:Z","depth":0,"parameterNumber":3,"parameterNumberName":"V-component_of_WINDS"},"data":[0,0,0,0,0,0,0,0,0,0,0,0,0,0,0,0,0,0,0,0,0,0,0,0,0,0,0,0,0,0,0,0,0,0,0,0,0,0,0,0,0,0,0,0,0,0,0,0,0,0,0,0,0,0,0,0,0,0,1.1826,1.1826,0,1.1811,1.1811,1.1811,1.186,1.1862,1.1863,1.1864,1.1846,1.1844,1.1842,0,0,0,0,0,0,0,0,0,0,0,0,0,1.1895,1.1893,1.1826,1.1826,1.1826,1.1811,1.1811,1.1811,1.186,1.1862,1.1863,1.1865,1.1846,1.1844,1.1842,0,0,0,0,0,0,0,0,0,0,0,0,0,1.1871,1.1893,1.1826,1.1849,1.1851,1.1812,1.1811,1.1811,1.1859,1.1862,1.1864,1.1866,1.1847,1.1844,1.1841,1.1779,0,0,1.1833,1.1831,0,0,0,0,0,0,0,0,1.1872,1.1868,1.1846,1.1847,1.1849,1.184,1.1829,1.18,1.1859,1.1856,1.1865,1.1867,1.1842,1.1839,1.1832,1.1778,1.1777,1.1832,1.1831,1.1829,1.1829,0,0,0,0,0,0,0,1.1874,1.1869,1.182,1.1845,1.1847,1.1859,1.1858,1.1823,1.1836,1.1856,1.186,1.1858,1.1843,1.1834,1.1831,1.1777,1.1833,1.183,1.1828,1.1827,1.1673,1.167,0,0,0,0,0,0,1.1873,1.187,1.1821,1.182,1.1867,1.1856,1.1855,1.1841,1.1837,1.1839,1.1856,1.186,1.1838,1.1835,1.1831,1.1759,1.183,1.1827,1.1825,1.1675,1.1672,1.167,0,0,0,0,0,0,1.1874,1.1868,1.1822,1.1846,1.1841,1.1852,1.1836,1.1839,1.183,1.1836,1.1839,1.1845,1.184,1.1835,1.1792,1.1758,1.1826,1.1823,1.1678,1.1674,1.1671,1.1612,0,0,0,0,0,0,1.1876,1.1868,1.1845,1.1845,1.184,1.1783,1.1834,1.1837,1.1826,1.1831,1.1826,1.1828,1.1841,1.1796,1.1789,1.1756,1.1821,1.1681,1.1676,1.1672,1.1617,1.1607,1.1599,0,0,0,0,0,1.1878,1.1828,1.1844,1.1837,1.1811,1.1781,1.1778,1.1795,1.1823,1.18,1.1804,1.1828,1.1763,1.1791,1.1784,1.1749,1.1683,1.1678,1.1672,1.1622,1.1609,1.1599,0,0,0,0,0,0,1.1822,1.1829,1.1846,1.1795,1.1787,1.179,1.1761,1.1781,1.1765,1.1771,1.1792,1.179,1.1743,1.1742,1.1773,1.1689,1.1728,1.1721,1.1692,1.168,1.1671,1.1672,1.1818,0,0,0,0,0,1.1804,1.1781,1.1787,1.1741,1.1737,1.1749,1.1737,1.1751,1.1744,1.174,1.1741,1.1732,1.171,1.1695,1.1675,1.1618,1.1617,1.159,1.1581,1.1573,1.1566,1.1537,1.1525,1.1652,1.1652,1.1652,0,0,1.1766,1.1767,1.175,1.173,1.1726,1.17,1.1746,1.1717,1.1698,1.1736,1.1696,1.1696,1.1687,1.1637,1.1615,1.1635,1.1531,1.1566,1.156,1.1558,1.153,1.1518,1.1507,1.1648,1.1649,1.1649,0,0,1.1684,1.1682,1.1644,1.164,1.1634,1.1643,1.1633,1.1633,1.1635,1.1596,1.1624,1.1601,1.1562,1.1555,1.1547,1.1463,1.1485,1.1456,1.1407,1.1377,1.1367,1.1359,1.1329,1.1318,1.1449,1.1449,1.1449,0,1.1637,1.1601,1.1622,1.1591,1.1581,1.1616,1.1578,1.1572,1.1558,1.1551,1.1573,1.1526,1.1523,1.1472,1.1452,1.1443,1.1433,1.1456,1.1367,1.1359,1.1351,1.1323,1.1312,1.1446,1.1446,1.1446,1.1447,0,1.1544,1.1518,1.1488,1.1477,1.1463,1.1429,1.1444,1.1428,1.1443,1.1449,1.1409,1.1406,1.1387,1.1376,1.139,1.1327,1.1339,1.1364,1.1403,1.1335,1.1309,1.1299,1.1441,1.1442,1.1443,1.1444,0,0,1.1426,1.1427,1.1416,1.1411,1.1407,1.1388,1.1354,1.1337,1.1323,1.1313,1.1285,1.1252,1.1276,1.1266,1.128,1.1254,1.1189,1.1282,1.1282,1.1265,1.112,1.1101,1.1088,1.1203,1.1201,1.12,1.112,0,1.1345,1.129,1.1309,1.1252,1.1229,1.1262,1.1233,1.1227,1.1232,1.1213,1.1218,1.1195,1.1227,1.1221,1.1197,1.1201,1.116,1.1207,1.1178,1.1176,1.1179,1.1075,1.1055,1.098,1.111,1.1109,1.1107,0,1.1244,1.1232,1.1174,1.1175,1.1166,1.114,1.1126,1.1106,1.11,1.1106,1.1096,1.1115,1.1082,1.1122,1.1077,1.1109,1.1098,1.1098,1.1096,1.1094,1.1138,1.107,1.0957,1.0946,1.1092,1.1093,1.1094,0,1.1164,1.1133,1.1094,1.1089,1.109,1.1071,1.107,1.1067,1.1055,1.1042,1.1035,1.1017,1.1008,1.0994,1.1008,1.1036,1.0961,1.1002,1.0964,1.0964,1.0947,1.0948,1.0831,1.0939,1.094,1.094,1.094,0,1.1073,1.1036,1.1059,1.1035,1.0995,1.1016,1.0975,1.0978,1.0975,1.0951,1.0978,1.0956,1.0976,1.0955,1.0966,1.0927,1.0922,1.0926,1.0929,1.0923,1.0923,1.0916,1.0922,1.0937,1.0937,1.0938,1.0939,0,1.0977,1.099,1.0951,1.0955,1.0955,1.0925,1.0929,1.0906,1.0914,1.0884,1.0879,1.089,1.0867,1.088,1.0856,1.0863,1.0813,1.0823,1.0815,1.0818,1.078,1.0784,1.0655,1.0639,1.0757,1.0756,1.0755,0,1.0917,1.089,1.0892,1.0879,1.0877,1.0856,1.0845,1.0864,1.0851,1.0843,1.0822,1.0802,1.0787,1.0748,1.0754,1.0735,1.0746,1.0702,1.0743,1.0738,1.0745,1.0747,1.0744,1.0693,1.0692,1.0691,1.069,0,1.0811,1.082,1.0803,1.0789,1.0776,1.0765,1.0757,1.0744,1.0764,1.0748,1.0726,1.0714,1.0691,1.067,1.0655,1.0653,1.0674,1.0677,1.0667,1.0661,1.0658,1.066,1.0793,1.068,1.0681,1.0681,1.0682,1.0682,1.0732,1.071,1.0708,1.0689,1.0685,1.0677,1.0657,1.0662,1.0645,1.0628,1.064,1.0614,1.0609,1.0591,1.0587,1.0566,1.0583,1.0569,1.0566,1.0562,1.0557,1.0662,1.0563,1.0563,1.0563,1.0564,1.0564,0,1.0628,1.0628,1.0611,1.0599,1.0584,1.0607,1.0599,1.0585,1.0562,1.0556,1.0541,1.0516,1.0496,1.0501,1.0483,1.0465,1.0475,1.046,1.0461,1.0461,1.0542,1.0553,1.0453,1.0453,1.0453,1.0453,1.0453,1.0453,1.0571,1.0535,1.0544,1.0506,1.0507,1.0482,1.0476,1.0468,1.0464,1.0435,1.0419,1.0423,1.0421,1.0404,1.0387,1.0389,1.0381,1.0363,1.0368,1.0444,1.0455,1.0465,1.0475,1.0361,1.0361,1.0288,1.0288,1.0287]}]]